Content
SEND FEEDBACK

Daily
Averages
Monthly
Summary
United States of America

STATEN ISLAND, NEW YORK


Home > North America > United States > New York
Elevation: 46 meters     Latitude: 40 35N     Longitude: 074 09W

WEATHER
 
SELECT A DAY
Number of Records: 189,740;   Date Range: 1/1/95 - 8/12/14
 
SHARE

PRINT THIS DATA

[ ← Previous Day ]
WEATHER ALMANAC - 14 JANUARY, 2013
[ Next Day → ]
[ °F ]   °C
Weather ElementAverageHighLow
Temperature10.4 °C14.4 °C (11:51 am)5 °C (10:51 pm)
Dewpoint6.9 °C11.7 °C (10:51 am)-2.8 °C (8:51 pm)
Humidity81.8 %100 % (12:38 am)43 % (4:51 pm)
Barometer1019 hPa1025.7 hPa (10:51 pm)1014.2 hPa (5:51 am)
Wind Speed10.8 km/h27.8 km/h (9:51 pm)
Wind Gust44.4 km/h (4:51 pm)
Weather ElementAverage
Visibility8.5 km
Wind DirectionSSW (211.3 °)

Weather ElementTotal
Precipitation1.52 mm
Heating Degree Days8.7 (Base 18.3)
Averaged from 32 records on 14 January, 2013
WEATHER CONDITIONS BREAKOUT
WIND DIRECTION BREAKOUT
WEATHER BY HOUR - 14 JANUARY, 2013
[ °F ]   °C
Local TimeTemperatureDewpointHumidityBarometerVisibilityWind DirectionWind SpeedGust SpeedPrecipitationEventsConditions
12:38 AM9 °C9 °C100 %1016.3 hPa0.8 kmCalm0 mmLight Drizzle
12:51 AM9 °C9 °C100 %1016.3 hPa0.8 kmCalmLight Drizzle
1:51 AM9.4 °C9.4 °C100 %1015.9 hPa0.8 kmCalm0 mmLight Drizzle
2:51 AM9.4 °C9.4 °C100 %1016.3 hPa0.8 kmCalm0 mmLight Drizzle
3:51 AM9.4 °C9.4 °C100 %1015.9 hPa0.8 kmCalm0 mmFogLight Drizzle
4:10 AM9 °C9 °C100 %1015.9 hPa0.8 kmCalm0 mmFogLight Drizzle
4:21 AM10 °C9 °C94 %1015.9 hPa0.8 kmCalm0 mmFogLight Drizzle
4:51 AM9.4 °C9.4 °C100 %1015.6 hPa0.8 kmCalm0 mmFogLight Drizzle
5:51 AM9.4 °C9.4 °C100 %1014.2 hPa0.8 kmSE (140°)5.6 km/h0 mmFogLight Drizzle
6:51 AM10.6 °C10.6 °C100 %1016.3 hPa0.8 kmVariable5.6 km/h29.6 km/h0 mmLight Drizzle
7:02 AM11 °C11 °C100 %1016.3 hPa0.8 kmWNW (290°)11.1 km/h0 mmOvercast
7:36 AM11 °C11 °C100 %1017.3 hPa4 kmWest (280°)11.1 km/h0 mmOvercast
7:51 AM10.6 °C10.6 °C100 %1016.9 hPa4 kmWSW (250°)9.3 km/h0 mmOvercast
8:51 AM11.1 °C10.6 °C97 %1017.9 hPa4 kmWest (260°)7.4 km/hOvercast
9:04 AM11 °C11 °C100 %1017.9 hPa4.8 kmWSW (240°)9.3 km/hOvercast
9:34 AM12 °C11 °C94 %1017.9 hPa4.8 kmSW (230°)7.4 km/hMostly Cloudy
9:38 AM12 °C11 °C94 %1017.9 hPa9.7 kmSW (230°)9.3 km/hMostly Cloudy
9:51 AM11.7 °C11.1 °C96 %1018.3 hPa9.7 kmWSW (250°)5.6 km/hMostly Cloudy
10:51 AM13.3 °C11.7 °C90 %1018.6 hPa12.9 kmWest (270°)9.3 km/hMostly Cloudy
11:51 AM14.4 °C10 °C75 %1018.6 hPa14.5 kmNW (320°)18.5 km/hMostly Cloudy
12:51 PM13.3 °C7.2 °C67 %1018.3 hPa16.1 kmNNW (340°)18.5 km/hMostly Cloudy
1:51 PM13.9 °C6.7 °C62 %1019 hPa16.1 kmNW (320°)16.7 km/h27.8 km/hMostly Cloudy
2:51 PM13.3 °C3.3 °C51 %1020 hPa16.1 kmNNW (340°)20.4 km/h33.3 km/hMostly Cloudy
3:51 PM12.8 °C3.9 °C55 %1021 hPa16.1 kmNorth (350°)22.2 km/hMostly Cloudy
4:51 PM11.7 °C-0.6 °C43 %1021 hPa16.1 kmNW (320°)24.1 km/h44.4 km/hMostly Cloudy
5:51 PM10.6 °C-0.6 °C46 %1022 hPa16.1 kmNNW (330°)16.7 km/hMostly Cloudy
6:51 PM10.6 °C-1.1 °C44 %1022.4 hPa16.1 kmNNW (330°)18.5 km/h29.6 km/hOvercast
7:51 PM9.4 °C-2.2 °C44 %1024.7 hPa16.1 kmNW (320°)18.5 km/hOvercast
8:51 PM8.9 °C-2.8 °C44 %1024.7 hPa16.1 kmNNW (330°)20.4 km/hOvercast
9:51 PM6.7 °C-0.6 °C60 %1025.1 hPa16.1 kmNNW (330°)27.8 km/h0 mmRainLight Rain
10:51 PM5 °C1.7 °C79 %1025.7 hPa16.1 kmNNW (340°)18.5 km/h1.02 mmRainLight Rain
11:51 PM5 °C2.2 °C82 %1025.7 hPa16.1 kmNorth (350°)13 km/h0.51 mmRainLight Rain
Hourly data recorded from KEWR, located 0 kilometers away from Staten Island, New York







STORIES FROM OUR PARTNERS